{"data":{"norad_id":67682,"epoch":"2026-05-25T03:15:05.911776Z","epoch_age_seconds":59221,"freshness":"FRESH","line1":"1 67682U 26023J   26145.13548509  .00010284  00000+0  41334-3 0  9997","line2":"2 67682  96.6266 211.8047 0021242 196.4411 163.6143 15.24873932 16483","mean_motion":15.24873932,"eccentricity":0.0021242,"inclination_deg":96.6266,"raan_deg":211.8047,"arg_perigee_deg":196.4411,"mean_anomaly_deg":163.6143,"bstar":0.00041334,"rev_number":1648,"period_min":94.434036137749,"perigee_km":476.57224856883,"apogee_km":505.75578701281,"semimajor_km":6869.3010177908,"source":"CELESTRAK","updated_at":"2026-05-25T13:38:07.185327Z"}}